EHI
0 1 2 2 1 0 0 0 0 0 0 0 0 0 0 0 0 0 0 1 2 3 3 3 4 5 6 6 4 4 5 6 5 4 4 3 2 2 2 1 1 1 1
0 0 1 1 1 0 0 0 0 0 0 0 0 0 0 0 0 0 0 1 2 3 3 3 3 5 6 6 4 3 5 6 5 4 3 2 2 2 2 2 2 2 2
0 0 0 0 1 1 1 0 0 0 0 0 0 0 0 0 0 0 0 1 2 3 3 3 3 3 3 3 2 2 2 3 3 4 3 2 1 1 1 1 1 1 1
0 0 0 0 0 0 1 1 1 1 2 1 0 0 0 1 1 0 0 1 1 1 2 3 2 1 1 0 0 0 1 1 1 2 2 2 1 1 0 0 0 0 0
0 0 0 0 0 0 0 1 2 3 3 2 1 0 0 1 2 1 0 0 0 0 1 2 2 2 1 0 0 0 1 2 1 1 1 1 2 2 1 0 0 0 0
0 0 0 0 0 0 0 1 3 3 3 2 1 1 1 1 1 1 0 0 0 0 0 1 1 2 2 1 0 0 1 2 2 2 1 0 1 1 1 0 0 0 0
1 1 1 0 0 0 0 1 2 2 2 2 3 3 2 1 1 1 1 1 1 0 0 0 0 1 1 1 1 0 0 1 1 1 1 1 1 1 1 0 0 0 0
1 2 2 1 1 1 1 1 2 1 1 2 3 3 3 3 2 2 3 3 1 0 0 0 0 0 0 1 1 0 0 0 0 0 1 1 2 2 2 2 1 0 0
2 2 2 2 1 2 2 2 3 2 1 2 2 2 3 4 4 4 4 4 1 0 0 1 1 1 0 1 1 1 0 0 0 0 0 1 2 2 2 2 2 1 1
1 1 3 3 2 1 1 2 3 3 3 3 3 3 3 3 3 4 4 3 1 0 1 2 2 1 1 2 2 2 1 0 0 0 1 2 2 2 1 1 1 2 2
0 1 2 2 1 1 1 2 3 3 3 3 3 3 3 2 2 3 3 2 1 1 2 3 3 2 2 3 3 4 2 0 0 0 1 3 4 4 3 2 1 2 3
0 0 0 0 1 2 3 3 3 3 3 3 3 3 3 2 2 2 2 1 1 1 2 3 2 2 2 2 4 4 2 0 0 0 1 3 6 7 6 4 4 3 3
1 1 1 1 3 5 5 5 4 3 4 4 3 2 2 3 3 3 2 0 1 1 1 1 1 1 1 2 2 3 2 0 0 0 0 2 4 6 5 6 6 6 5
3 3 2 3 6 7 7 6 5 5 6 6 4 2 2 2 3 3 2 1 0 0 0 1 1 1 1 2 1 1 1 0 0 0 0 0 1 2 3 4 5 5 5
4 4 4 5 7 8 9 9 7 6 7 7 4 2 2 2 2 2 2 1 0 0 0 1 2 1 2 2 1 1 2 1 0 0 0 0 0 0 1 1 2 3 3
4 4 5 7 8 8 10 11 9 7 6 5 3 3 3 3 3 3 3 2 1 1 1 2 2 2 2 1 0 1 3 2 1 0 0 0 0 0 0 0 0 1 1
5 6 7 8 8 8 10 11 9 7 5 4 3 3 3 4 6 6 5 3 3 3 2 1 1 1 2 2 2 2 2 2 1 1 0 0 0 0 0 0 0 0 0
10 10 10 10 9 8 9 9 8 6 5 3 3 3 4 6 8 8 7 5 5 5 3 1 0 1 2 3 4 3 2 1 1 0 0 0 0 0 0 0 0 0 0
14 13 12 12 11 10 9 8 7 6 4 4 3 3 4 6 8 8 7 6 6 6 5 3 1 1 2 4 5 5 4 4 2 0 0 0 0 0 0 0 0 0 0
14 13 12 12 13 12 11 9 8 6 5 5 4 3 3 5 6 6 6 6 7 7 6 4 3 2 2 4 6 6 7 7 5 2 1 0 0 0 0 0 0 0 0
11 11 11 12 12 12 10 9 8 7 7 8 6 4 3 4 4 4 4 5 6 6 5 5 3 2 2 4 4 5 7 8 7 4 3 2 1 1 2 1 0 0 0
11 11 11 11 11 10 8 6 7 8 9 10 8 5 3 3 3 2 2 2 2 3 3 4 4 3 3 3 2 3 5 7 7 7 7 5 3 2 3 2 1 0 0
14 14 13 12 12 10 6 3 3 6 9 12 11 7 5 4 3 3 2 1 1 1 1 3 4 4 4 3 1 2 4 6 7 8 9 7 4 2 3 2 1 0 0
17 16 15 14 13 10 5 1 1 3 8 11 11 9 6 4 4 4 4 4 3 2 1 1 2 3 3 3 1 1 4 6 7 8 8 7 5 4 3 3 1 0 0
17 16 15 14 13 9 5 1 1 4 7 10 11 8 5 4 3 3 5 6 5 4 1 0 1 1 1 1 1 2 3 5 5 5 6 7 6 6 6 6 3 1 0
15 14 13 13 12 10 5 2 2 4 7 10 11 7 4 3 2 2 5 6 6 5 2 1 0 0 0 0 1 2 3 4 4 4 5 6 7 8 8 7 6 3 1
Wind_Speed
1 1 1 1 1 1 1 1 1 1 0 1 1 1 0 0 0 1 3 6 5 4 4 4 4 4 5 6 7 7 7 7 7 8 9 9 9 9 10 10 10 10 10
1 1 1 1 1 1 1 1 0 0 0 0 0 0 0 1 1 1 1 5 7 5 4 4 4 4 5 6 6 6 7 7 7 7 7 7 8 8 9 9 9 9 9
1 0 0 0 1 1 0 1 0 1 1 1 1 1 1 1 1 1 1 1 4 6 5 4 4 4 4 5 5 6 6 7 7 7 7 7 7 7 8 8 8 8 8
0 1 1 1 1 1 1 1 1 1 0 1 1 1 1 1 2 2 2 2 1 2 5 6 4 3 3 4 5 5 6 6 6 7 7 8 8 7 8 8 8 8 8
1 2 1 1 2 1 1 2 1 1 1 1 1 2 1 2 2 3 2 2 2 2 2 6 6 5 4 4 5 5 6 6 7 8 8 8 8 8 8 8 8 8 8
2 3 2 1 2 1 1 1 1 2 2 2 2 1 2 2 2 2 3 3 3 3 3 2 4 6 6 5 5 4 5 6 6 7 8 8 8 8 8 8 9 9 9
2 3 3 2 2 2 2 2 2 2 2 2 2 2 2 3 3 3 3 3 3 3 3 3 3 2 4 7 5 4 4 5 6 7 8 8 8 8 8 8 8 9 9
3 3 2 3 2 2 2 2 2 2 2 2 2 2 2 3 3 3 3 3 3 3 3 3 2 2 3 2 5 6 5 5 6 7 7 8 8 7 8 8 8 9 9
3 3 3 3 3 3 2 3 3 4 3 2 2 3 3 1 1 2 3 2 2 2 3 2 3 3 3 3 3 6 6 4 5 6 7 7 7 7 8 9 9 9 9
3 3 3 3 4 3 3 4 3 3 4 3 2 3 3 3 3 2 2 2 3 3 3 3 3 3 4 3 2 3 5 5 5 6 6 7 8 8 8 9 9 9 9
3 3 3 3 4 4 3 4 3 4 4 4 3 2 3 3 4 4 3 2 2 2 2 3 2 2 3 3 3 3 5 4 4 5 5 7 8 8 9 9 10 10 10
3 3 3 3 4 3 3 3 4 4 4 4 4 3 3 3 3 3 3 4 3 2 2 2 2 2 3 3 2 4 5 4 4 4 4 5 6 7 7 8 9 10 10
2 2 3 3 3 3 4 4 4 4 4 4 4 4 3 4 3 3 3 3 4 3 3 3 2 3 2 2 1 4 4 3 3 3 4 4 5 6 6 7 8 9 9
2 2 3 3 4 4 4 3 4 4 3 4 4 4 4 4 3 3 3 3 4 3 3 3 2 2 1 1 1 3 2 4 3 3 3 4 4 5 5 6 6 6 7
2 3 3 3 4 4 4 4 3 4 3 4 4 4 4 3 3 3 3 4 4 4 3 2 2 1 1 1 1 2 1 3 3 3 3 3 3 4 4 5 5 5 5
2 2 3 3 3 3 3 4 3 3 3 3 3 3 4 3 2 3 3 4 4 4 3 1 2 1 1 1 1 2 1 3 3 3 3 3 3 3 4 4 5 5 5
3 3 3 3 3 2 2 3 3 3 3 3 4 4 4 4 4 3 3 3 3 3 3 2 2 1 1 2 1 2 2 2 2 3 3 3 2 2 2 3 4 4 4
3 3 3 3 3 3 2 3 3 3 3 3 3 4 4 3 4 4 3 3 2 3 4 3 2 2 2 2 2 3 2 2 1 4 4 3 3 2 2 2 2 3 3
3 3 3 3 3 3 3 3 3 3 3 3 3 4 4 4 4 3 3 3 3 3 3 3 3 2 2 2 2 3 2 2 2 3 5 5 4 3 3 2 2 2 2
3 3 3 3 4 4 3 3 3 3 3 3 4 4 4 4 4 4 3 3 3 3 3 4 3 3 2 2 3 2 2 1 1 1 0 1 4 5 4 4 3 2 2
3 3 3 3 4 4 2 3 4 4 4 3 3 3 3 3 3 3 3 3 3 4 4 3 3 3 2 2 3 2 2 1 1 1 2 1 1 1 3 4 3 2 2
3 3 3 3 4 3 1 2 5 4 4 4 3 3 3 4 2 2 3 4 5 5 4 4 4 3 3 3 3 3 2 2 2 1 2 1 1 1 1 1 3 3 2
3 3 3 3 4 2 1 2 4 5 4 4 3 3 3 2 3 3 4 5 5 6 6 6 5 5 4 3 3 4 3 3 2 1 2 2 1 1 1 3 5 3 2
3 3 3 3 3 2 2 3 4 6 5 4 4 4 3 2 2 3 3 3 4 5 6 6 5 4 4 2 3 4 4 4 3 2 2 3 2 1 1 2 6 4 3
3 3 3 3 3 2 2 3 5 5 4 4 4 3 3 3 1 2 4 4 4 4 4 3 3 2 1 2 3 3 4 4 3 2 2 3 2 2 1 2 4 6 4
3 3 2 3 3 2 2 3 5 4 4 4 4 4 3 2 1 2 4 4 4 4 3 3 4 4 4 4 5 5 4 4 3 2 2 2 3 2 2 2 2 4 4
Wind_Direction
58 57 45 6 345 37 146 120 55 74 72 176 190 164 168 122 224 206 136 149 167 188 200 200 198 201 205 205 210 211 211 213 211 210 211 210 210 206 206 205 207 207 206
58 23 71 357 356 355 21 12 94 149 229 30 167 118 224 175 169 230 187 155 163 173 185 191 194 196 200 202 206 207 208 212 213 206 203 204 204 203 203 203 205 208 207
93 321 5 280 24 22 81 234 189 212 207 200 171 186 205 196 179 196 214 208 165 163 171 183 188 193 204 214 216 208 207 208 209 203 202 200 200 201 203 203 202 201 202
253 276 294 340 341 282 263 250 241 227 196 241 235 233 190 175 194 196 203 204 205 168 166 172 188 198 211 226 225 217 210 208 205 201 206 207 203 204 206 208 209 204 201
245 265 288 339 276 278 284 288 317 282 249 245 234 220 216 204 203 201 199 213 205 215 201 163 180 199 211 228 231 223 215 213 208 204 209 209 207 208 210 209 209 208 208
247 273 258 263 279 279 290 316 311 288 272 257 264 268 239 221 218 211 216 214 216 226 233 221 196 190 197 218 229 227 219 211 205 208 213 213 211 210 211 210 209 210 210
259 269 287 267 271 275 283 271 261 248 255 247 239 236 233 223 215 213 221 236 230 228 229 230 244 244 185 188 206 217 216 212 207 209 214 215 214 212 211 211 212 214 214
257 251 264 267 269 265 257 261 260 269 265 252 266 255 228 205 203 211 211 220 241 239 226 224 226 230 260 204 160 189 208 217 215 213 215 216 217 214 213 213 216 217 218
254 272 267 272 277 267 257 262 260 257 262 258 261 275 273 261 237 196 211 215 225 240 243 238 223 217 230 233 184 174 194 210 221 223 221 217 213 211 213 216 217 217 218
247 252 256 263 269 272 270 263 265 269 265 263 240 249 272 296 278 238 216 214 218 231 250 259 234 209 222 226 193 144 180 199 215 226 225 220 216 212 214 218 219 220 219
246 254 254 258 260 263 265 276 284 276 267 274 275 261 254 240 248 256 253 248 242 232 232 245 251 238 226 231 223 163 166 189 207 220 228 225 218 216 218 220 222 224 223
235 242 254 263 263 268 263 260 263 258 269 279 280 274 262 257 243 247 254 253 254 251 250 249 245 234 229 229 208 131 158 181 199 216 223 224 223 222 219 219 220 223 224
238 239 259 257 265 264 264 263 259 272 263 264 268 275 271 266 264 258 257 262 262 247 242 236 236 242 240 231 176 137 163 175 196 209 219 226 228 227 225 223 222 221 224
258 260 256 254 259 262 263 258 258 258 264 267 271 274 270 263 256 253 255 263 261 244 225 236 243 245 266 256 76 191 179 169 187 205 215 224 229 226 224 223 222 221 225
248 243 251 256 262 263 263 259 261 266 265 261 258 251 261 259 248 247 246 251 263 261 247 212 236 236 257 258 90 241 224 142 167 196 210 218 222 222 222 219 214 214 218
268 264 261 260 261 260 258 259 255 257 263 265 266 262 264 262 257 251 254 254 259 268 278 286 259 281 309 271 135 261 249 147 178 195 204 212 216 215 218 218 211 209 210
252 254 255 258 260 264 264 265 268 260 260 265 268 258 258 271 264 252 247 246 246 253 253 259 263 260 246 269 245 255 242 228 171 160 175 190 196 199 206 208 206 202 199
243 243 247 249 257 261 260 260 263 265 265 266 271 276 271 262 260 263 256 248 246 244 240 247 245 233 237 247 248 257 258 253 238 144 163 171 174 173 176 175 181 189 190
242 242 238 247 257 262 255 257 260 265 266 263 262 263 268 269 264 263 259 247 237 233 236 237 237 234 242 253 246 240 244 261 262 155 163 167 158 157 156 155 158 154 161
239 244 243 245 250 252 250 255 257 260 260 264 261 258 263 263 256 251 243 238 236 236 228 236 231 226 227 241 250 245 237 230 280 290 5 171 158 170 164 151 149 150 160
232 236 244 247 249 246 252 270 266 254 251 256 257 253 249 259 283 265 262 241 233 233 229 230 229 229 225 238 242 248 254 256 247 288 277 250 191 194 165 157 155 148 163
244 238 240 249 254 258 15 293 277 268 253 251 253 251 241 224 225 236 257 263 257 244 243 243 241 241 233 244 251 245 242 247 251 238 282 280 239 220 165 130 99 118 140
243 245 249 251 253 254 211 259 269 264 252 251 251 249 252 219 207 229 221 227 241 250 253 250 247 248 239 237 243 241 238 248 259 230 263 272 254 222 180 112 117 126 139
254 253 254 256 253 236 200 241 265 249 251 247 243 241 242 241 227 235 232 231 232 228 231 234 240 249 254 250 245 249 240 228 230 213 220 254 248 245 199 137 136 144 153
253 252 244 247 253 241 215 243 261 249 241 244 239 233 233 233 193 231 230 234 239 232 212 220 242 252 277 268 265 251 234 230 233 220 212 253 247 245 229 187 145 153 158
249 258 256 257 253 252 209 228 253 252 244 238 226 220 197 219 177 201 227 233 236 237 232 197 200 208 218 219 232 246 250 245 240 230 179 232 241 249 240 201 185 174 172